Location: Branche des Alpilles
(43.6087°N, 4.6976°E)
Time: 03:51:34
(UTC+00:00)

Landsat 5 - Pass Details

Date: 30 November 2020
Orbit: 528 x 654 km, 98.2° (Epoch: 24 January)

Event Time Altitude Azimuth Distance (km) Brightness Sun altitude
Rises 16:45:41 0° 12° (NNE) 2,942 6.7 -7.3°
Reaches altitude 10° 16:47:53 10° 12° (NNE) 2,043 5.9 -7.6°
Maximum altitude 16:52:22 84° 285° (WNW) 660 3.8 -8.4°
Drops below altitude 10° 16:56:52 10° 197° (SSW) 2,057 6.8 -9.1°
Sets 16:59:05 0° 197° (SSW) 2,964 7.6 -9.5°
